Weather History for Martinsville, VA

Change the Weather History Date:

Friday, February 8, 2013

  Actual Average (KGSO) Record (KGSO)
Temperature  
Mean Temperature 47 °F 41 °F  
Max Temperature 59 °F 51 °F 75 °F (1925)
Min Temperature 35 °F 31 °F 4 °F (1936)
Degree Days  
Heating Degree Days 18 24  
Month to date heating degree days 196  
Since 1 July heating degree days 2419  
Cooling Degree Days 0 0  
Month to date cooling degree days 0  
Year to date cooling degree days 0  
Moisture  
Dew Point 35 °F    
Average Humidity 72    
Maximum Humidity 100    
Minimum Humidity 33    
Precipitation  
Precipitation 0.24 in 0.10 in 1.22 in (1903)
Month to date precipitation 0.79  
Year to date precipitation 3.85  
Snow  
Snow 0.00 in 0.10 in 0.70 in (1961)
Month to date snowfall 0.8  
Since 1 July snowfall 5.1  
Snow Depth -    
Sea Level Pressure  
Sea Level Pressure 29.95 in    
Wind  
Wind Speed 8 mph (NNW)    
Max Wind Speed 25 mph    
Max Gust Speed 33 mph    
Visibility 9 miles    
Events Rain    
T = Trace of Precipitation, MM = Missing Value Source: NWS Daily Summary

Daily Weather History Graph

Daily Weather History Graph

Search for Another Location

Airport:

Trip Planner

Search our weather history database for the weather conditions in past years. The results will help you decide how hot, cold, wet, or windy it might be!

Date:

Astronomy

Feb. 08, 2013 Rise Set
Actual Time 7:15 AM EST 5:53 PM EST
Civil Twilight 6:48 AM EST 6:20 PM EST
Nautical Twilight 6:18 AM EST 6:51 PM EST
Astronomical Twilight 5:47 AM EST 7:21 PM EST
Moon 5:41 AM EST (2/8) 4:26 PM EST (2/8)
Length of Visible Light 11h 31m
Length of Day
10h 38m
Waning Crescent, 3% of the Moon is Illuminated
Feb 8
Waning Crescent
Feb 10
New
Feb 17
First Quarter
Feb 25
Full
Mar 4
Last Quarter

Hourly Weather History & Observations

Time (EST) Temp. Windchill Dew Point Humidity Pressure Visibility Wind Dir Wind Speed Gust Speed Precip Events Conditions
12:15 AM 35.6 °F 29.9 °F 35.6 °F 100% 30.08 in 4.0 mi North 6.9 mph - 0.06 in Rain Rain
12:35 AM 35.6 °F 30.7 °F 35.6 °F 100% 30.08 in 4.0 mi North 5.8 mph - 0.10 in Rain Rain
12:55 AM 35.6 °F 30.7 °F 35.6 °F 100% 30.07 in 3.0 mi North 5.8 mph - 0.03 in Rain Rain
1:15 AM 35.6 °F 30.7 °F 35.6 °F 100% 30.06 in 4.0 mi North 5.8 mph - 0.05 in Rain Rain
1:35 AM 35.6 °F 30.7 °F 35.6 °F 100% 30.05 in 3.0 mi North 5.8 mph - 0.09 in Rain Rain
1:55 AM 35.6 °F 30.7 °F 35.6 °F 100% 30.03 in 4.0 mi North 5.8 mph - 0.01 in Rain Rain
2:15 AM 35.6 °F 30.7 °F 35.6 °F 100% 30.02 in 4.0 mi North 5.8 mph - 0.05 in Rain Rain
2:35 AM 35.6 °F 30.7 °F 35.6 °F 100% 30.01 in 5.0 mi NNW 5.8 mph - 0.08 in Rain Light Rain
2:55 AM 35.6 °F 29.9 °F 35.6 °F 100% 29.99 in 5.0 mi North 6.9 mph - 0.01 in Rain Light Rain
3:15 AM 35.6 °F 29.9 °F 35.6 °F 100% 29.98 in 5.0 mi North 6.9 mph - 0.03 in Rain Light Rain
3:35 AM 35.6 °F 31.7 °F 35.6 °F 100% 29.97 in 7.0 mi North 4.6 mph - 0.04 in Rain Rain
3:55 AM 37.4 °F 32.1 °F 37.4 °F 100% 29.96 in 7.0 mi North 6.9 mph - N/A   Drizzle
4:35 AM 37.4 °F 32.1 °F 37.4 °F 100% 29.96 in 10.0 mi North 6.9 mph - N/A   Light Drizzle
4:55 AM 37.4 °F 32.1 °F 37.4 °F 100% 29.95 in 10.0 mi NNW 6.9 mph - N/A   Overcast
5:15 AM 37.4 °F 32.1 °F 37.4 °F 100% 29.95 in 10.0 mi North 6.9 mph - N/A   Drizzle
5:35 AM 37.4 °F 32.8 °F 37.4 °F 100% 29.94 in 10.0 mi North 5.8 mph - N/A   Drizzle
5:55 AM 37.4 °F 32.1 °F 37.4 °F 100% 29.95 in 10.0 mi NNW 6.9 mph - N/A Rain Light Rain
6:15 AM 37.4 °F 33.8 °F 37.4 °F 100% 29.94 in 10.0 mi North 4.6 mph - N/A   Drizzle
6:35 AM 37.4 °F 32.8 °F 37.4 °F 100% 29.94 in 10.0 mi North 5.8 mph - N/A   Overcast
7:15 AM 39.2 °F 35.9 °F 39.2 °F 100% 29.94 in 10.0 mi NNW 4.6 mph - N/A   Overcast
7:35 AM 39.2 °F 35.9 °F 39.2 °F 100% 29.93 in 10.0 mi NNW 4.6 mph - N/A   Overcast
7:55 AM 39.2 °F 35.9 °F 39.2 °F 100% 29.93 in 10.0 mi North 4.6 mph - N/A   Overcast
8:15 AM 39.2 °F 37.0 °F 39.2 °F 100% 29.93 in 10.0 mi NNW 3.5 mph - N/A   Overcast
8:35 AM 41.0 °F 38.0 °F 41.0 °F 100% 29.92 in 10.0 mi NNW 4.6 mph - N/A   Overcast
8:55 AM 42.8 °F 39.3 °F 42.8 °F 100% 29.92 in 10.0 mi NNW 5.8 mph - N/A   Overcast
9:15 AM 42.8 °F 41.1 °F 42.8 °F 100% 29.92 in 10.0 mi NNW 3.5 mph - N/A   Overcast
9:35 AM 44.6 °F 42.2 °F 44.6 °F 100% 29.92 in 10.0 mi NW 4.6 mph - N/A   Mostly Cloudy
9:55 AM 46.4 °F 42.9 °F 41.0 °F 81% 29.91 in 10.0 mi NW 6.9 mph - N/A   Scattered Clouds
10:15 AM 46.4 °F 43.5 °F 39.2 °F 76% 29.90 in 10.0 mi NW 5.8 mph - N/A   Scattered Clouds
10:35 AM 48.2 °F - 39.2 °F 71% 29.90 in 10.0 mi NW 4.6 mph - N/A   Mostly Cloudy
10:55 AM 48.2 °F - 39.2 °F 71% 29.90 in 10.0 mi NNW 3.5 mph - N/A   Scattered Clouds
11:15 AM 50.0 °F - 41.0 °F 71% 29.89 in 10.0 mi Calm Calm - N/A   Scattered Clouds
11:35 AM 51.8 °F - 41.0 °F 67% 29.88 in 10.0 mi Calm Calm - N/A   Mostly Cloudy
11:55 AM 53.6 °F - 42.8 °F 67% 29.87 in 10.0 mi SSW 5.8 mph - N/A   Scattered Clouds
12:15 PM 53.6 °F - 42.8 °F 67% 29.86 in 10.0 mi SW 4.6 mph - N/A   Mostly Cloudy
12:35 PM 53.6 °F - 42.8 °F 67% 29.85 in 10.0 mi Calm Calm - N/A   Overcast
12:55 PM 53.6 °F - 42.8 °F 67% 29.85 in 10.0 mi East 3.5 mph - N/A   Overcast
1:15 PM 53.6 °F - 42.8 °F 67% 29.84 in 10.0 mi NE 3.5 mph - N/A   Overcast
1:35 PM 55.4 °F - 42.8 °F 63% 29.84 in 10.0 mi WSW 4.6 mph - N/A   Overcast
1:55 PM 57.2 °F - 41.0 °F 55% 29.84 in 10.0 mi NW 11.5 mph 18.4 mph N/A   Overcast
2:15 PM 55.4 °F - 37.4 °F 51% 29.85 in 10.0 mi NNW 17.3 mph 23.0 mph N/A   Overcast
2:35 PM 57.2 °F - 35.6 °F 44% 29.85 in 10.0 mi WNW 16.1 mph 26.5 mph N/A   Scattered Clouds
2:55 PM 59.0 °F - 35.6 °F 42% 29.84 in 10.0 mi WNW 8.1 mph 17.3 mph N/A   Clear
3:15 PM 57.2 °F - 35.6 °F 44% 29.84 in 10.0 mi NW 16.1 mph - N/A   Clear
3:35 PM 59.0 °F - 35.6 °F 42% 29.85 in 10.0 mi WNW 10.4 mph 19.6 mph N/A   Mostly Cloudy
3:55 PM 57.2 °F - 33.8 °F 41% 29.85 in 10.0 mi NW 17.3 mph 21.9 mph N/A   Scattered Clouds
4:15 PM 57.2 °F - 28.4 °F 33% 29.85 in 10.0 mi WNW 15.0 mph 21.9 mph N/A   Clear
4:35 PM 57.2 °F - 30.2 °F 36% 29.86 in 10.0 mi NW 16.1 mph 19.6 mph N/A   Clear
4:55 PM 55.4 °F - 30.2 °F 38% 29.88 in 10.0 mi NNW 12.7 mph 26.5 mph N/A   Clear
5:15 PM 53.6 °F - 30.2 °F 41% 29.90 in 10.0 mi NNW 13.8 mph 24.2 mph N/A   Clear
5:35 PM 50.0 °F - 30.2 °F 47% 29.92 in 10.0 mi NW 13.8 mph 23.0 mph N/A   Clear
5:55 PM 48.2 °F - 30.2 °F 50% 29.94 in 10.0 mi NW 16.1 mph 24.2 mph N/A   Clear
6:15 PM 46.4 °F 38.1 °F 28.4 °F 50% 29.96 in 10.0 mi NW 24.2 mph 33.4 mph N/A   Clear
6:35 PM 46.4 °F 38.1 °F 26.6 °F 46% 29.97 in 10.0 mi NW 24.2 mph 32.2 mph N/A   Clear
6:55 PM 44.6 °F 37.4 °F 26.6 °F 49% 29.98 in 10.0 mi NNW 16.1 mph 26.5 mph N/A   Clear
7:15 PM 44.6 °F 37.8 °F 26.6 °F 49% 29.99 in 10.0 mi NW 15.0 mph 20.7 mph N/A   Scattered Clouds
7:35 PM 44.6 °F 37.8 °F 28.4 °F 53% 30.00 in 10.0 mi WNW 15.0 mph 20.7 mph N/A   Mostly Cloudy
7:55 PM 44.6 °F 36.6 °F 26.6 °F 49% 30.01 in 10.0 mi NW 19.6 mph 26.5 mph N/A   Scattered Clouds
8:15 PM 44.6 °F 36.6 °F 26.6 °F 49% 30.02 in 10.0 mi NW 19.6 mph 27.6 mph N/A   Scattered Clouds
8:35 PM 42.8 °F 34.8 °F 26.6 °F 53% 30.03 in 10.0 mi NW 17.3 mph 29.9 mph N/A   Scattered Clouds
8:55 PM 42.8 °F 35.1 °F 26.6 °F 53% 30.03 in 10.0 mi NW 16.1 mph - N/A   Scattered Clouds
9:15 PM 42.8 °F 34.0 °F 26.6 °F 53% 30.05 in 10.0 mi NW 20.7 mph 29.9 mph N/A   Scattered Clouds
9:35 PM 42.8 °F 33.1 °F 26.6 °F 53% 30.05 in 10.0 mi NW 25.3 mph 32.2 mph N/A   Mostly Cloudy
9:55 PM 42.8 °F 34.3 °F 26.6 °F 53% 30.06 in 10.0 mi NW 19.6 mph 27.6 mph N/A   Mostly Cloudy
10:15 PM 42.8 °F 34.0 °F 24.8 °F 49% 30.07 in 10.0 mi NNW 20.7 mph 29.9 mph N/A   Scattered Clouds
10:35 PM 42.8 °F 36.2 °F 24.8 °F 49% 30.07 in 10.0 mi NNW 12.7 mph - N/A   Scattered Clouds
10:55 PM 42.8 °F 35.8 °F 24.8 °F 49% 30.08 in 10.0 mi NW 13.8 mph - N/A   Overcast
11:15 PM 42.8 °F 36.2 °F 24.8 °F 49% 30.08 in 10.0 mi NW 12.7 mph 19.6 mph N/A   Mostly Cloudy
11:35 PM 41.0 °F 39.0 °F 24.8 °F 53% 30.08 in 10.0 mi North 3.5 mph - N/A   Mostly Cloudy
11:55 PM 39.2 °F 35.0 °F 24.8 °F 56% 30.08 in 10.0 mi North 5.8 mph - N/A   Scattered Clouds